Location: Berlise
(49.6641°N, 4.1077°E)
Time: 20:10:57
(UTC+00:00)

CZ-4B R/B - Pass Details

Date: 27 January 2021
Orbit: 496 x 646 km, 97.8° (Epoch: 27 February)

Event Time Altitude Azimuth Distance (km) Brightness Sun altitude
Rises 05:05:03 0° 10° (N) 2,975 7.7 -22.1°
Reaches altitude 10° 05:07:18 10° 8° (N) 2,057 6.8 -21.8°
Maximum altitude 05:11:45 62° 288° (WNW) 724 4.0 -21.1°
Enters shadow 05:12:52 45° 232° (SW) 868 4.4 -20.9°
